Time,TemperatureF,DewpointF,PressureIn,WindDirection,WindDirectionDegrees,WindSpeedMPH,WindSpeedGustMPH,Humidity,HourlyPrecipIn,Conditions,Clouds,dailyrainin,SoftwareType,DateUTC
2013-04-01 00:01:00,37.2,26.6,29.79,SE,137,12.0,12.0,65,0.00,,,0.00,meteohub,2013-04-01 04:01:00,
2013-04-01 00:07:00,36.9,25.9,29.82,SE,134,6.0,12.0,64,0.00,,,0.00,meteohub,2013-04-01 04:07:00,
2013-04-01 00:12:00,36.5,25.2,29.82,East,84,10.0,12.0,63,0.00,,,0.00,meteohub,2013-04-01 04:12:00,
2013-04-01 00:17:00,36.1,24.8,29.82,SE,131,7.0,12.0,63,0.00,,,0.00,meteohub,2013-04-01 04:17:00,
2013-04-01 00:22:00,36.1,25.2,29.79,SE,124,11.0,12.0,64,0.00,,,0.00,meteohub,2013-04-01 04:22:00,
2013-04-01 00:27:00,36.1,25.5,29.79,ESE,112,11.0,13.0,65,0.00,,,0.00,meteohub,2013-04-01 04:27:00,
2013-04-01 00:32:00,36.1,25.5,29.79,SE,127,10.0,13.0,65,0.00,,,0.00,meteohub,2013-04-01 04:32:00,
2013-04-01 00:37:00,36.3,26.8,29.79,ESE,108,8.0,13.0,68,0.00,,,0.00,meteohub,2013-04-01 04:37:00,
2013-04-01 00:42:00,36.1,27.0,29.79,SSE,148,8.0,13.0,69,0.00,,,0.00,meteohub,2013-04-01 04:42:00,
2013-04-01 00:47:00,36.3,27.5,29.79,SE,124,11.0,13.0,70,0.00,,,0.00,meteohub,2013-04-01 04:47:00,
2013-04-01 00:52:00,36.3,27.5,29.79,ESE,123,9.0,13.0,70,0.00,,,0.00,meteohub,2013-04-01 04:52:00,
2013-04-01 00:57:00,36.3,27.5,29.79,SE,127,8.0,13.0,70,0.00,,,0.00,meteohub,2013-04-01 04:57:00,
2013-04-01 01:02:00,36.3,27.5,29.79,SE,126,6.0,13.0,70,0.00,,,0.00,meteohub,2013-04-01 05:02:00,
2013-04-01 01:07:00,36.5,28.0,29.76,SE,131,6.0,11.0,71,0.00,,,0.00,meteohub,2013-04-01 05:07:00,
2013-04-01 01:12:00,36.5,28.0,29.76,SE,126,4.0,11.0,71,0.00,,,0.00,meteohub,2013-04-01 05:12:00,
2013-04-01 01:17:00,36.3,27.5,29.76,SE,129,6.0,11.0,70,0.00,,,0.00,meteohub,2013-04-01 05:17:00,
2013-04-01 01:23:00,36.5,27.7,29.76,SE,125,4.0,7.0,70,0.00,,,0.00,meteohub,2013-04-01 05:23:00,
2013-04-01 01:28:00,36.5,27.7,29.76,SE,131,3.0,6.0,70,0.00,,,0.00,meteohub,2013-04-01 05:28:00,
2013-04-01 01:33:00,36.3,27.5,29.76,SE,134,6.0,6.0,70,0.00,,,0.00,meteohub,2013-04-01 05:33:00,
2013-04-01 01:38:00,36.3,27.5,29.76,SE,144,6.0,6.0,70,0.00,,,0.00,meteohub,2013-04-01 05:38:00,
2013-04-01 01:43:00,36.3,27.9,29.76,SE,136,6.0,9.0,71,0.00,,,0.00,meteohub,2013-04-01 05:43:00,
2013-04-01 01:48:00,36.1,27.3,29.76,SE,138,5.0,9.0,70,0.00,,,0.00,meteohub,2013-04-01 05:48:00,
2013-04-01 01:53:00,36.0,27.1,29.76,SE,129,6.0,9.0,70,0.00,,,0.00,meteohub,2013-04-01 05:53:00,
2013-04-01 01:58:00,35.8,27.3,29.76,SE,130,8.0,8.0,71,0.00,,,0.00,meteohub,2013-04-01 05:58:00,
2013-04-01 02:03:00,35.6,27.1,29.76,ESE,112,8.0,9.0,71,0.00,,,0.00,meteohub,2013-04-01 06:03:00,
2013-04-01 02:08:00,35.8,27.7,29.73,SE,132,5.0,9.0,72,0.00,,,0.00,meteohub,2013-04-01 06:08:00,
2013-04-01 02:13:00,35.6,27.9,29.73,SE,128,8.0,11.0,73,0.00,,,0.00,meteohub,2013-04-01 06:13:00,
2013-04-01 02:18:00,35.4,27.7,29.73,SE,129,6.0,11.0,73,0.00,,,0.00,meteohub,2013-04-01 06:18:00,
2013-04-01 02:23:00,35.6,27.9,29.73,SE,138,5.0,11.0,73,0.00,,,0.00,meteohub,2013-04-01 06:23:00,
2013-04-01 02:28:00,35.6,28.2,29.73,SE,131,4.0,11.0,74,0.00,,,0.00,meteohub,2013-04-01 06:28:00,
2013-04-01 02:33:00,35.6,27.9,29.73,SE,141,4.0,10.0,73,0.00,,,0.00,meteohub,2013-04-01 06:33:00,
2013-04-01 02:39:00,35.6,27.9,29.73,SSE,147,4.0,8.0,73,0.00,,,0.00,meteohub,2013-04-01 06:39:00,
2013-04-01 02:44:00,35.6,27.9,29.73,SSE,149,4.0,5.0,73,0.00,,,0.00,meteohub,2013-04-01 06:44:00,
2013-04-01 02:49:00,35.6,27.9,29.73,ESE,122,0.0,5.0,73,0.00,,,0.00,meteohub,2013-04-01 06:49:00,
2013-04-01 02:54:00,35.6,27.9,29.70,SSE,148,4.0,6.0,73,0.00,,,0.00,meteohub,2013-04-01 06:54:00,
2013-04-01 02:59:00,35.6,27.9,29.70,North,-999,-999.0,6.0,73,0.00,,,0.00,meteohub,2013-04-01 06:59:00,
2013-04-01 03:04:00,35.4,27.7,29.70,North,-999,-999.0,6.0,73,0.00,,,0.00,meteohub,2013-04-01 07:04:00,
2013-04-01 03:09:00,35.4,27.7,29.70,North,-999,-999.0,-999.0,73,0.00,,,0.00,meteohub,2013-04-01 07:09:00,
2013-04-01 03:14:00,35.4,27.7,29.70,North,-999,-999.0,-999.0,73,0.00,,,0.00,meteohub,2013-04-01 07:14:00,
2013-04-01 03:19:00,35.4,27.7,29.70,North,-999,-999.0,-999.0,73,0.00,,,0.00,meteohub,2013-04-01 07:19:00,
2013-04-01 03:24:00,35.4,27.7,29.70,North,-999,-999.0,-999.0,73,0.00,,,0.00,meteohub,2013-04-01 07:24:00,
2013-04-01 03:29:00,35.4,28.0,29.70,North,-999,-999.0,-999.0,74,0.00,,,0.00,meteohub,2013-04-01 07:29:00,
2013-04-01 03:34:00,35.6,28.2,29.70,North,-999,-999.0,-999.0,74,0.00,,,0.00,meteohub,2013-04-01 07:34:00,
2013-04-01 03:39:00,35.6,28.2,29.70,North,-999,-999.0,-999.0,74,0.00,,,0.00,meteohub,2013-04-01 07:39:00,
2013-04-01 03:44:00,35.8,28.6,29.70,North,-999,-999.0,-999.0,75,0.00,,,0.00,meteohub,2013-04-01 07:44:00,
2013-04-01 03:49:00,36.0,28.8,29.70,North,-999,-999.0,-999.0,75,0.00,,,0.00,meteohub,2013-04-01 07:49:00,
2013-04-01 03:54:00,35.8,28.6,29.67,North,-999,-999.0,-999.0,75,0.00,,,0.00,meteohub,2013-04-01 07:54:00,
2013-04-01 03:59:00,35.8,28.6,29.67,North,-999,-999.0,-999.0,75,0.00,,,0.00,meteohub,2013-04-01 07:59:00,
2013-04-01 04:04:00,35.6,28.4,29.67,North,-999,-999.0,-999.0,75,0.00,,,0.00,meteohub,2013-04-01 08:04:00,
2013-04-01 04:09:00,35.6,28.4,29.67,North,-999,-999.0,-999.0,75,0.00,,,0.00,meteohub,2013-04-01 08:09:00,
2013-04-01 04:14:00,35.8,28.6,29.67,North,-999,-999.0,-999.0,75,0.00,,,0.00,meteohub,2013-04-01 08:14:00,
2013-04-01 04:20:00,35.8,28.6,29.67,North,-999,-999.0,-999.0,75,0.00,,,0.00,meteohub,2013-04-01 08:20:00,
2013-04-01 04:25:00,35.8,28.6,29.67,North,-999,-999.0,-999.0,75,0.00,,,0.00,meteohub,2013-04-01 08:25:00,
2013-04-01 04:30:00,35.8,28.9,29.67,North,-999,-999.0,-999.0,76,0.00,,,0.00,meteohub,2013-04-01 08:30:00,
2013-04-01 04:35:00,35.8,28.9,29.67,North,-999,-999.0,-999.0,76,0.00,,,0.00,meteohub,2013-04-01 08:35:00,
2013-04-01 04:40:00,35.8,28.9,29.67,North,-999,-999.0,-999.0,76,0.00,,,0.00,meteohub,2013-04-01 08:40:00,
2013-04-01 04:45:00,35.6,28.8,29.67,North,-999,-999.0,-999.0,76,0.00,,,0.00,meteohub,2013-04-01 08:45:00,
2013-04-01 04:50:00,35.6,28.8,29.67,North,-999,-999.0,-999.0,76,0.00,,,0.00,meteohub,2013-04-01 08:50:00,
2013-04-01 04:55:00,35.4,28.6,29.67,North,-999,-999.0,-999.0,76,0.00,,,0.00,meteohub,2013-04-01 08:55:00,
2013-04-01 05:00:00,35.6,28.4,29.67,North,-999,-999.0,-999.0,75,0.00,,,0.00,meteohub,2013-04-01 09:00:00,
2013-04-01 05:05:00,35.4,28.6,29.67,North,-999,-999.0,-999.0,76,0.00,,,0.00,meteohub,2013-04-01 09:05:00,
2013-04-01 05:10:00,35.4,28.6,29.67,NE,41,0.0,-999.0,76,0.00,,,0.00,meteohub,2013-04-01 09:10:00,
2013-04-01 05:15:00,35.2,28.4,29.67,NE,41,0.0,0.0,76,0.00,,,0.00,meteohub,2013-04-01 09:15:00,
2013-04-01 05:21:00,35.2,28.0,29.67,NE,41,0.0,0.0,75,0.00,,,0.00,meteohub,2013-04-01 09:21:00,
2013-04-01 05:25:00,35.2,28.4,29.67,NE,41,0.0,0.0,76,0.00,,,0.00,meteohub,2013-04-01 09:25:00,
2013-04-01 05:31:00,35.2,28.4,29.67,NE,41,0.0,0.0,76,0.00,,,0.00,meteohub,2013-04-01 09:31:00,
2013-04-01 05:36:00,35.1,28.2,29.67,NE,41,0.0,0.0,76,0.00,,,0.00,meteohub,2013-04-01 09:36:00,
2013-04-01 05:41:00,35.1,28.2,29.67,NE,41,0.0,0.0,76,0.00,,,0.00,meteohub,2013-04-01 09:41:00,
2013-04-01 05:46:00,35.1,28.2,29.67,NNW,339,0.0,0.0,76,0.00,,,0.00,meteohub,2013-04-01 09:46:00,
2013-04-01 05:51:00,35.1,28.2,29.67,NNW,339,0.0,0.0,76,0.00,,,0.00,meteohub,2013-04-01 09:51:00,
2013-04-01 05:56:00,35.1,28.2,29.67,NNW,339,0.0,0.0,76,0.00,,,0.00,meteohub,2013-04-01 09:56:00,
2013-04-01 06:01:00,34.9,28.0,29.67,NNW,339,0.0,0.0,76,0.00,,,0.00,meteohub,2013-04-01 10:01:00,
2013-04-01 06:06:00,34.9,27.7,29.67,NNW,339,0.0,0.0,75,0.00,,,0.00,meteohub,2013-04-01 10:06:00,
2013-04-01 06:11:00,34.9,27.7,29.67,NNW,339,0.0,0.0,75,0.00,,,0.00,meteohub,2013-04-01 10:11:00,
2013-04-01 06:16:00,34.9,27.7,29.67,NNW,339,0.0,0.0,75,0.00,,,0.00,meteohub,2013-04-01 10:16:00,
2013-04-01 06:21:00,34.9,28.0,29.67,NNW,339,0.0,0.0,76,0.00,,,0.00,meteohub,2013-04-01 10:21:00,
2013-04-01 06:26:00,34.7,27.9,29.67,East,79,0.0,0.0,76,0.00,,,0.00,meteohub,2013-04-01 10:26:00,
2013-04-01 06:31:00,34.5,27.5,29.67,East,79,0.0,0.0,75,0.00,,,0.00,meteohub,2013-04-01 10:31:00,
2013-04-01 06:36:00,34.5,27.5,29.67,East,79,0.0,0.0,75,0.00,,,0.00,meteohub,2013-04-01 10:36:00,
2013-04-01 06:41:00,34.5,27.5,29.67,East,79,0.0,0.0,75,0.00,,,0.00,meteohub,2013-04-01 10:41:00,
2013-04-01 06:46:00,34.3,27.3,29.67,East,79,0.0,0.0,75,0.00,,,0.00,meteohub,2013-04-01 10:46:00,
2013-04-01 06:51:00,34.3,27.3,29.67,East,79,0.0,0.0,75,0.00,,,0.00,meteohub,2013-04-01 10:51:00,
2013-04-01 06:56:00,34.3,27.3,29.67,East,79,0.0,0.0,75,0.00,,,0.00,meteohub,2013-04-01 10:56:00,
2013-04-01 07:01:00,34.3,27.5,29.67,East,79,0.0,0.0,76,0.00,,,0.00,meteohub,2013-04-01 11:01:00,
2013-04-01 07:06:00,34.5,27.7,29.67,East,79,0.0,0.0,76,0.00,,,0.00,meteohub,2013-04-01 11:06:00,
2013-04-01 07:12:00,34.5,27.7,29.67,East,79,0.0,0.0,76,0.00,,,0.00,meteohub,2013-04-01 11:12:00,
2013-04-01 07:17:00,34.5,27.7,29.67,East,79,0.0,0.0,76,0.00,,,0.00,meteohub,2013-04-01 11:17:00,
2013-04-01 07:22:00,34.5,27.7,29.67,East,79,0.0,0.0,76,0.00,,,0.00,meteohub,2013-04-01 11:22:00,
2013-04-01 07:27:00,34.5,27.7,29.67,East,79,0.0,0.0,76,0.00,,,0.00,meteohub,2013-04-01 11:27:00,
2013-04-01 07:32:00,34.5,27.7,29.67,North,-999,-999.0,0.0,76,0.00,,,0.00,meteohub,2013-04-01 11:32:00,
2013-04-01 07:37:00,34.7,27.9,29.67,North,353,0.0,0.0,76,0.00,,,0.00,meteohub,2013-04-01 11:37:00,
2013-04-01 07:42:00,34.9,28.0,29.67,North,353,0.0,0.0,76,0.00,,,0.00,meteohub,2013-04-01 11:42:00,
2013-04-01 07:47:00,34.9,28.0,29.67,North,2,0.0,0.0,76,0.00,,,0.00,meteohub,2013-04-01 11:47:00,
2013-04-01 07:52:00,34.9,28.4,29.67,ENE,77,0.0,0.0,77,0.00,,,0.00,meteohub,2013-04-01 11:52:00,
2013-04-01 07:57:00,35.1,28.6,29.67,NNW,327,4.0,4.0,77,0.00,,,0.00,meteohub,2013-04-01 11:57:00,
2013-04-01 08:02:00,35.1,28.6,29.67,NNW,342,0.0,4.0,77,0.00,,,0.00,meteohub,2013-04-01 12:02:00,
2013-04-01 08:07:00,35.1,28.6,29.67,NNW,343,0.0,4.0,77,0.00,,,0.00,meteohub,2013-04-01 12:07:00,
2013-04-01 08:12:00,35.1,28.6,29.67,North,353,0.0,4.0,77,0.00,,,0.00,meteohub,2013-04-01 12:12:00,
2013-04-01 08:17:00,35.1,28.6,29.67,NNW,328,0.0,0.0,77,0.00,,,0.00,meteohub,2013-04-01 12:17:00,
2013-04-01 08:23:00,35.2,28.8,29.67,SSW,205,0.0,0.0,77,0.00,,,0.00,meteohub,2013-04-01 12:23:00,
2013-04-01 08:28:00,35.4,28.9,29.67,SSW,205,0.0,0.0,77,0.00,,,0.00,meteohub,2013-04-01 12:28:00,
2013-04-01 08:33:00,35.4,28.9,29.67,NNW,341,0.0,0.0,77,0.00,,,0.00,meteohub,2013-04-01 12:33:00,
2013-04-01 08:38:00,35.4,28.9,29.67,NNW,341,0.0,0.0,77,0.00,,,0.00,meteohub,2013-04-01 12:38:00,
2013-04-01 08:43:00,35.4,28.9,29.67,NNW,341,0.0,0.0,77,0.00,,,0.00,meteohub,2013-04-01 12:43:00,
2013-04-01 08:48:00,35.4,28.9,29.67,NNW,341,0.0,0.0,77,0.00,,,0.00,meteohub,2013-04-01 12:48:00,
2013-04-01 08:53:00,35.8,29.3,29.64,NNW,341,0.0,0.0,77,0.00,,,0.00,meteohub,2013-04-01 12:53:00,
2013-04-01 08:58:00,35.6,29.1,29.64,NNW,341,0.0,0.0,77,0.00,,,0.00,meteohub,2013-04-01 12:58:00,
2013-04-01 09:03:00,36.0,29.5,29.64,NNW,341,0.0,0.0,77,0.00,,,0.00,meteohub,2013-04-01 13:03:00,
2013-04-01 09:08:00,36.1,29.7,29.64,North,-999,-999.0,0.0,77,0.00,,,0.00,meteohub,2013-04-01 13:08:00,
2013-04-01 09:13:00,36.3,29.8,29.64,North,0,0.0,0.0,77,0.00,,,0.00,meteohub,2013-04-01 13:13:00,
2013-04-01 09:18:00,36.5,30.0,29.64,North,-999,-999.0,0.0,77,0.00,,,0.00,meteohub,2013-04-01 13:18:00,
2013-04-01 09:23:00,37.2,30.7,29.64,North,-999,-999.0,0.0,77,0.00,,,0.00,meteohub,2013-04-01 13:23:00,
2013-04-01 09:28:00,37.9,31.5,29.64,North,-999,-999.0,-999.0,77,0.00,,,0.00,meteohub,2013-04-01 13:28:00,
2013-04-01 09:33:00,38.3,31.6,29.64,North,-999,-999.0,-999.0,77,0.00,,,0.00,meteohub,2013-04-01 13:33:00,
2013-04-01 09:38:00,38.7,32.0,29.64,ESE,112,3.0,3.0,77,0.00,,,0.00,meteohub,2013-04-01 13:38:00,
2013-04-01 09:43:00,38.8,32.2,29.64,SSE,151,0.0,4.0,77,0.00,,,0.00,meteohub,2013-04-01 13:43:00,
2013-04-01 09:48:00,39.4,32.7,29.64,ESE,119,4.0,4.0,77,0.00,,,0.00,meteohub,2013-04-01 13:48:00,
2013-04-01 09:54:00,39.6,32.9,29.64,SE,129,0.0,5.0,77,0.00,,,0.00,meteohub,2013-04-01 13:54:00,
2013-04-01 09:59:00,40.3,33.3,29.64,NE,43,0.0,5.0,76,0.00,,,0.00,meteohub,2013-04-01 13:59:00,
2013-04-01 10:04:00,39.6,32.5,29.64,SE,133,5.0,6.0,76,0.00,,,0.00,meteohub,2013-04-01 14:04:00,
2013-04-01 10:09:00,39.6,32.4,29.64,SE,131,4.0,6.0,75,0.00,,,0.00,meteohub,2013-04-01 14:09:00,
2013-04-01 10:14:00,38.8,31.6,29.64,ESE,117,0.0,6.0,75,0.00,,,0.00,meteohub,2013-04-01 14:14:00,
2013-04-01 10:19:00,39.0,31.5,29.64,West,273,0.0,6.0,74,0.00,,,0.00,meteohub,2013-04-01 14:19:00,
2013-04-01 10:24:00,40.3,33.1,29.64,NW,326,5.0,5.0,75,0.00,,,0.00,meteohub,2013-04-01 14:24:00,
2013-04-01 10:29:00,41.0,33.4,29.64,ESE,104,4.0,5.0,74,0.00,,,0.00,meteohub,2013-04-01 14:29:00,
2013-04-01 10:34:00,41.7,34.0,29.64,West,274,0.0,5.0,74,0.00,,,0.00,meteohub,2013-04-01 14:34:00,
2013-04-01 10:39:00,42.3,34.5,29.64,NNW,327,0.0,5.0,74,0.00,,,0.00,meteohub,2013-04-01 14:39:00,
2013-04-01 10:44:00,42.3,34.5,29.64,NW,313,4.0,6.0,74,0.00,,,0.00,meteohub,2013-04-01 14:44:00,
2013-04-01 10:50:00,42.4,34.3,29.64,NNW,328,0.0,6.0,73,0.00,,,0.00,meteohub,2013-04-01 14:50:00,
2013-04-01 10:55:00,42.6,34.2,29.64,North,357,0.0,8.0,72,0.00,,,0.00,meteohub,2013-04-01 14:55:00,
2013-04-01 11:00:00,43.0,34.2,29.64,NE,43,3.0,8.0,71,0.00,,,0.00,meteohub,2013-04-01 15:00:00,
2013-04-01 11:05:00,43.2,33.3,29.64,North,350,0.0,8.0,68,0.00,,,0.00,meteohub,2013-04-01 15:05:00,
2013-04-01 11:10:00,43.5,33.3,29.61,SSE,166,4.0,6.0,67,0.00,,,0.00,meteohub,2013-04-01 15:10:00,
2013-04-01 11:15:00,44.2,34.3,29.61,West,276,5.0,5.0,68,0.00,,,0.00,meteohub,2013-04-01 15:15:00,
2013-04-01 11:20:00,44.6,34.0,29.61,SE,138,0.0,5.0,66,0.00,,,0.00,meteohub,2013-04-01 15:20:00,
2013-04-01 11:25:00,44.6,34.0,29.61,SSE,150,4.0,6.0,66,0.00,,,0.00,meteohub,2013-04-01 15:25:00,
2013-04-01 11:30:00,44.4,33.1,29.61,East,90,3.0,6.0,64,0.00,,,0.00,meteohub,2013-04-01 15:30:00,
2013-04-01 11:35:00,43.9,32.2,29.61,SSE,167,4.0,6.0,63,0.00,,,0.00,meteohub,2013-04-01 15:35:00,
2013-04-01 11:40:00,43.2,31.5,29.61,SE,136,5.0,8.0,63,0.00,,,0.00,meteohub,2013-04-01 15:40:00,
2013-04-01 11:45:00,43.0,31.6,29.61,ESE,117,2.0,8.0,64,0.00,,,0.00,meteohub,2013-04-01 15:45:00,
2013-04-01 11:50:00,43.2,31.8,29.61,SE,134,4.0,8.0,64,0.00,,,0.00,meteohub,2013-04-01 15:50:00,
2013-04-01 11:55:00,43.2,32.2,29.61,SE,132,4.0,5.0,65,0.00,,,0.00,meteohub,2013-04-01 15:55:00,
2013-04-01 12:00:00,43.2,32.2,29.61,SE,132,0.0,5.0,65,0.00,,,0.00,meteohub,2013-04-01 16:00:00,
2013-04-01 12:05:00,44.2,32.9,29.61,NNW,340,4.0,5.0,64,0.00,,,0.00,meteohub,2013-04-01 16:05:00,
2013-04-01 12:10:00,44.6,32.7,29.61,SE,130,3.0,4.0,63,0.00,,,0.00,meteohub,2013-04-01 16:10:00,
2013-04-01 12:16:00,44.4,33.1,29.61,ESE,120,3.0,4.0,64,0.00,,,0.00,meteohub,2013-04-01 16:16:00,
2013-04-01 12:21:00,44.4,32.5,29.61,SSE,150,0.0,4.0,63,0.00,,,0.00,meteohub,2013-04-01 16:21:00,
2013-04-01 12:26:00,44.4,32.5,29.61,SSE,150,0.0,4.0,63,0.00,,,0.00,meteohub,2013-04-01 16:26:00,
2013-04-01 12:31:00,45.0,32.7,29.61,NE,39,0.0,4.0,62,0.00,,,0.00,meteohub,2013-04-01 16:31:00,
2013-04-01 12:36:00,46.0,33.8,29.61,WNW,293,0.0,5.0,62,0.00,,,0.00,meteohub,2013-04-01 16:36:00,
2013-04-01 12:41:00,46.2,32.7,29.58,SSE,154,0.0,5.0,59,0.00,,,0.00,meteohub,2013-04-01 16:41:00,
2013-04-01 12:46:00,46.6,32.5,29.58,NE,39,0.0,7.0,58,0.00,,,0.00,meteohub,2013-04-01 16:46:00,
2013-04-01 12:51:00,47.3,32.4,29.58,SE,130,0.0,7.0,56,0.00,,,0.00,meteohub,2013-04-01 16:51:00,
2013-04-01 12:56:00,47.5,32.2,29.58,SE,139,3.0,7.0,55,0.00,,,0.00,meteohub,2013-04-01 16:56:00,
2013-04-01 13:02:00,47.7,31.3,29.58,NE,38,4.0,7.0,53,0.00,,,0.00,meteohub,2013-04-01 17:02:00,
2013-04-01 13:07:00,47.3,31.1,29.55,East,99,5.0,8.0,53,0.00,,,0.00,meteohub,2013-04-01 17:07:00,
2013-04-01 13:12:00,47.1,30.4,29.55,East,85,0.0,9.0,52,0.00,,,0.00,meteohub,2013-04-01 17:12:00,
2013-04-01 13:17:00,46.9,30.2,29.55,ESE,105,0.0,9.0,52,0.00,,,0.00,meteohub,2013-04-01 17:17:00,
2013-04-01 13:22:00,47.5,30.7,29.55,SE,128,3.0,9.0,52,0.00,,,0.00,meteohub,2013-04-01 17:22:00,
2013-04-01 13:27:00,48.2,31.5,29.55,NE,39,0.0,5.0,52,0.00,,,0.00,meteohub,2013-04-01 17:27:00,
2013-04-01 13:32:00,48.4,31.1,29.55,SE,130,3.0,5.0,51,0.00,,,0.00,meteohub,2013-04-01 17:32:00,
2013-04-01 13:37:00,47.8,30.6,29.55,NNW,346,0.0,5.0,51,0.00,,,0.00,meteohub,2013-04-01 17:37:00,
2013-04-01 13:42:00,47.8,30.0,29.55,ESE,110,0.0,5.0,50,0.00,,,0.00,meteohub,2013-04-01 17:42:00,
2013-04-01 13:48:00,47.8,30.0,29.55,NW,311,3.0,5.0,50,0.00,,,0.00,meteohub,2013-04-01 17:48:00,
2013-04-01 13:53:00,47.7,30.4,29.55,North,0,5.0,5.0,51,0.00,,,0.00,meteohub,2013-04-01 17:53:00,
2013-04-01 13:58:00,46.4,29.7,29.55,WNW,295,9.0,15.0,52,0.00,,,0.00,meteohub,2013-04-01 17:58:00,
2013-04-01 14:03:00,44.4,28.8,29.55,NW,325,4.0,15.0,54,0.00,,,0.00,meteohub,2013-04-01 18:03:00,
2013-04-01 14:08:00,43.5,28.9,29.58,NNW,341,3.0,15.0,56,0.00,,,0.00,meteohub,2013-04-01 18:08:00,
2013-04-01 14:13:00,43.2,28.9,29.58,North,353,6.0,9.0,57,0.00,,,0.00,meteohub,2013-04-01 18:13:00,
2013-04-01 14:18:00,43.2,29.8,29.58,NNW,346,3.0,6.0,59,0.00,,,0.00,meteohub,2013-04-01 18:18:00,
2013-04-01 14:23:00,43.0,29.7,29.58,NW,312,2.0,6.0,59,0.00,,,0.00,meteohub,2013-04-01 18:23:00,
2013-04-01 14:28:00,43.3,30.4,29.58,NW,324,0.0,6.0,60,0.00,,,0.00,meteohub,2013-04-01 18:28:00,
2013-04-01 14:33:00,43.5,30.9,29.58,North,8,3.0,6.0,61,0.00,,,0.00,meteohub,2013-04-01 18:33:00,
2013-04-01 14:38:00,43.7,32.0,29.58,NNW,345,5.0,6.0,63,0.00,,,0.00,meteohub,2013-04-01 18:38:00,
2013-04-01 14:43:00,43.7,32.4,29.58,NW,308,3.0,5.0,64,0.00,,,0.00,meteohub,2013-04-01 18:43:00,
2013-04-01 14:48:00,43.5,32.2,29.58,NNW,331,0.0,6.0,64,0.00,,,0.00,meteohub,2013-04-01 18:48:00,
2013-04-01 14:54:00,43.2,31.8,29.58,North,350,4.0,6.0,64,0.00,,,0.00,meteohub,2013-04-01 18:54:00,
2013-04-01 14:59:00,43.0,32.0,29.58,NNW,337,3.0,6.0,65,0.00,,,0.00,meteohub,2013-04-01 18:59:00,
2013-04-01 15:03:00,43.0,32.0,29.58,NW,305,0.0,6.0,65,0.00,,,0.00,meteohub,2013-04-01 19:03:00,
2013-04-01 15:08:00,43.2,32.5,29.58,NNW,345,6.0,6.0,66,0.00,,,0.00,meteohub,2013-04-01 19:08:00,
2013-04-01 15:14:00,43.3,32.7,29.58,NNW,330,3.0,6.0,66,0.00,,,0.00,meteohub,2013-04-01 19:14:00,
2013-04-01 15:19:00,43.5,33.3,29.58,NNW,343,5.0,6.0,67,0.00,,,0.00,meteohub,2013-04-01 19:19:00,
2013-04-01 15:24:00,43.7,33.4,29.58,NNW,331,3.0,7.0,67,0.00,,,0.00,meteohub,2013-04-01 19:24:00,
2013-04-01 15:29:00,43.7,33.4,29.58,NNW,328,4.0,7.0,67,0.00,,,0.00,meteohub,2013-04-01 19:29:00,
2013-04-01 15:34:00,43.5,32.9,29.58,NNW,340,4.0,7.0,66,0.00,,,0.00,meteohub,2013-04-01 19:34:00,
2013-04-01 15:39:00,43.5,32.9,29.58,North,353,3.0,8.0,66,0.00,,,0.00,meteohub,2013-04-01 19:39:00,
2013-04-01 15:44:00,43.5,32.5,29.58,NNW,345,3.0,8.0,65,0.00,,,0.00,meteohub,2013-04-01 19:44:00,
2013-04-01 15:49:00,43.3,31.6,29.58,NNW,327,6.0,8.0,63,0.00,,,0.00,meteohub,2013-04-01 19:49:00,
2013-04-01 15:54:00,43.0,30.9,29.61,NW,305,8.0,8.0,62,0.00,,,0.00,meteohub,2013-04-01 19:54:00,
2013-04-01 15:59:00,42.6,29.7,29.61,NNW,335,5.0,8.0,60,0.00,,,0.00,meteohub,2013-04-01 19:59:00,
2013-04-01 16:04:00,42.3,28.6,29.61,SSE,165,10.0,10.0,58,0.00,,,0.00,meteohub,2013-04-01 20:04:00,
2013-04-01 16:09:00,41.7,28.0,29.61,NNW,337,9.0,10.0,58,0.00,,,0.00,meteohub,2013-04-01 20:09:00,
2013-04-01 16:14:00,41.5,27.5,29.61,North,353,6.0,10.0,57,0.00,,,0.00,meteohub,2013-04-01 20:14:00,
2013-04-01 16:19:00,41.2,26.6,29.61,WNW,290,6.0,13.0,56,0.00,,,0.00,meteohub,2013-04-01 20:19:00,
2013-04-01 16:24:00,41.0,26.1,29.61,North,357,5.0,13.0,55,0.00,,,0.00,meteohub,2013-04-01 20:24:00,
2013-04-01 16:29:00,40.5,24.6,29.61,WNW,283,4.0,13.0,53,0.00,,,0.00,meteohub,2013-04-01 20:29:00,
2013-04-01 16:34:00,40.3,24.4,29.61,NW,317,4.0,17.0,53,0.00,,,0.00,meteohub,2013-04-01 20:34:00,
2013-04-01 16:39:00,40.1,23.9,29.64,North,0,5.0,17.0,52,0.00,,,0.00,meteohub,2013-04-01 20:39:00,
2013-04-01 16:44:00,39.9,23.2,29.64,NNW,328,4.0,17.0,51,0.00,,,0.00,meteohub,2013-04-01 20:44:00,
2013-04-01 16:49:00,39.7,22.6,29.64,WNW,286,4.0,15.0,50,0.00,,,0.00,meteohub,2013-04-01 20:49:00,
2013-04-01 16:54:00,39.7,23.2,29.64,NW,314,6.0,15.0,51,0.00,,,0.00,meteohub,2013-04-01 20:54:00,
2013-04-01 16:59:00,39.6,22.5,29.64,NW,308,6.0,15.0,50,0.00,,,0.00,meteohub,2013-04-01 20:59:00,
2013-04-01 17:04:00,39.6,23.0,29.64,WNW,286,2.0,11.0,51,0.00,,,0.00,meteohub,2013-04-01 21:04:00,
2013-04-01 17:09:00,39.4,22.8,29.64,NNW,338,6.0,11.0,51,0.00,,,0.00,meteohub,2013-04-01 21:09:00,
2013-04-01 17:14:00,39.4,22.8,29.64,NNW,335,11.0,11.0,51,0.00,,,0.00,meteohub,2013-04-01 21:14:00,
2013-04-01 17:19:00,39.2,22.6,29.64,NNW,343,7.0,11.0,51,0.00,,,0.00,meteohub,2013-04-01 21:19:00,
2013-04-01 17:24:00,38.8,21.4,29.64,WSW,249,5.0,11.0,49,0.00,,,0.00,meteohub,2013-04-01 21:24:00,
2013-04-01 17:29:00,38.7,21.2,29.64,NW,313,8.0,11.0,49,0.00,,,0.00,meteohub,2013-04-01 21:29:00,
2013-04-01 17:34:00,38.5,21.0,29.64,NW,304,5.0,16.0,49,0.00,,,0.00,meteohub,2013-04-01 21:34:00,
2013-04-01 17:39:00,37.9,19.9,29.64,NNW,335,7.0,16.0,48,0.00,,,0.00,meteohub,2013-04-01 21:39:00,
2013-04-01 17:44:00,37.8,19.4,29.64,North,353,5.0,16.0,47,0.00,,,0.00,meteohub,2013-04-01 21:44:00,
2013-04-01 17:49:00,37.4,18.0,29.64,NW,305,3.0,13.0,45,0.00,,,0.00,meteohub,2013-04-01 21:49:00,
2013-04-01 17:54:00,37.0,17.6,29.67,North,349,4.0,15.0,45,0.00,,,0.00,meteohub,2013-04-01 21:54:00,
2013-04-01 17:59:00,36.9,17.1,29.67,WNW,295,8.0,15.0,44,0.00,,,0.00,meteohub,2013-04-01 21:59:00,
2013-04-01 18:04:00,36.7,16.3,29.67,NNW,337,5.0,16.0,43,0.00,,,0.00,meteohub,2013-04-01 22:04:00,
2013-04-01 18:09:00,36.3,16.0,29.67,North,353,4.0,16.0,43,0.00,,,0.00,meteohub,2013-04-01 22:09:00,
2013-04-01 18:14:00,36.1,16.3,29.67,NNW,337,6.0,16.0,44,0.00,,,0.00,meteohub,2013-04-01 22:14:00,
2013-04-01 18:19:00,36.1,15.8,29.67,WNW,292,0.0,9.0,43,0.00,,,0.00,meteohub,2013-04-01 22:19:00,
2013-04-01 18:24:00,35.8,14.9,29.67,NNW,345,8.0,9.0,42,0.00,,,0.00,meteohub,2013-04-01 22:24:00,
2013-04-01 18:29:00,35.8,14.9,29.67,NNW,336,6.0,11.0,42,0.00,,,0.00,meteohub,2013-04-01 22:29:00,
2013-04-01 18:34:00,35.6,14.7,29.67,NNW,340,6.0,11.0,42,0.00,,,0.00,meteohub,2013-04-01 22:34:00,
2013-04-01 18:39:00,35.4,14.0,29.67,WNW,294,12.0,12.0,41,0.00,,,0.00,meteohub,2013-04-01 22:39:00,
2013-04-01 18:44:00,35.1,14.4,29.67,South,172,4.0,18.0,42,0.00,,,0.00,meteohub,2013-04-01 22:44:00,
2013-04-01 18:49:00,34.9,13.6,29.67,NW,317,8.0,18.0,41,0.00,,,0.00,meteohub,2013-04-01 22:49:00,
2013-04-01 18:54:00,34.7,13.5,29.67,North,0,4.0,18.0,41,0.00,,,0.00,meteohub,2013-04-01 22:54:00,
2013-04-01 18:59:00,34.5,13.3,29.67,North,11,3.0,11.0,41,0.00,,,0.00,meteohub,2013-04-01 22:59:00,
2013-04-01 19:04:00,34.5,12.7,29.67,NNW,337,8.0,11.0,40,0.00,,,0.00,meteohub,2013-04-01 23:04:00,
2013-04-01 19:09:00,34.3,12.0,29.67,WNW,285,6.0,16.0,39,0.00,,,0.00,meteohub,2013-04-01 23:09:00,
2013-04-01 19:14:00,34.0,11.1,29.67,SW,225,11.0,16.0,38,0.00,,,0.00,meteohub,2013-04-01 23:14:00,
2013-04-01 19:20:00,34.0,10.4,29.67,NNW,333,8.0,16.0,37,0.00,,,0.00,meteohub,2013-04-01 23:20:00,
2013-04-01 19:25:00,33.6,9.5,29.67,SW,232,4.0,16.0,36,0.00,,,0.00,meteohub,2013-04-01 23:25:00,
2013-04-01 19:30:00,33.4,10.0,29.67,NNW,333,3.0,15.0,37,0.00,,,0.00,meteohub,2013-04-01 23:30:00,
2013-04-01 19:35:00,33.3,10.9,29.67,NNW,343,2.0,14.0,39,0.00,,,0.00,meteohub,2013-04-01 23:35:00,
2013-04-01 19:40:00,33.1,10.2,29.70,NNW,331,5.0,12.0,38,0.00,,,0.00,meteohub,2013-04-01 23:40:00,
2013-04-01 19:45:00,33.1,9.7,29.70,WNW,288,9.0,10.0,37,0.00,,,0.00,meteohub,2013-04-01 23:45:00,
2013-04-01 19:50:00,32.7,10.4,29.70,WNW,293,4.0,10.0,39,0.00,,,0.00,meteohub,2013-04-01 23:50:00,
2013-04-01 19:55:00,32.7,7.5,29.70,NW,324,8.0,10.0,34,0.00,,,0.00,meteohub,2013-04-01 23:55:00,
2013-04-01 20:00:00,32.5,7.3,29.70,NNW,346,3.0,12.0,34,0.00,,,0.00,meteohub,2013-04-02 00:00:00,
2013-04-01 20:05:00,32.5,7.3,29.70,West,278,11.0,12.0,34,0.00,,,0.00,meteohub,2013-04-02 00:05:00,
2013-04-01 20:10:00,32.2,7.0,29.70,NNW,337,4.0,13.0,34,0.00,,,0.00,meteohub,2013-04-02 00:10:00,
2013-04-01 20:15:00,32.2,7.0,29.70,SSE,164,5.0,13.0,34,0.00,,,0.00,meteohub,2013-04-02 00:15:00,
2013-04-01 20:20:00,32.0,6.8,29.70,WNW,291,11.0,15.0,34,0.00,,,0.00,meteohub,2013-04-02 00:20:00,
2013-04-01 20:25:00,31.8,6.6,29.73,NNW,332,6.0,15.0,34,0.00,,,0.00,meteohub,2013-04-02 00:25:00,
2013-04-01 20:30:00,31.5,6.3,29.73,West,268,8.0,15.0,34,0.00,,,0.00,meteohub,2013-04-02 00:30:00,
2013-04-01 20:35:00,31.5,5.7,29.73,North,5,6.0,17.0,33,0.00,,,0.00,meteohub,2013-04-02 00:35:00,
2013-04-01 20:40:00,31.3,5.5,29.73,NW,310,8.0,17.0,33,0.00,,,0.00,meteohub,2013-04-02 00:40:00,
2013-04-01 20:45:00,31.1,5.4,29.73,NNW,329,5.0,17.0,33,0.00,,,0.00,meteohub,2013-04-02 00:45:00,
2013-04-01 20:50:00,30.9,5.9,29.73,WSW,253,9.0,17.0,34,0.00,,,0.00,meteohub,2013-04-02 00:50:00,
2013-04-01 20:55:00,30.7,5.0,29.73,NNW,331,5.0,17.0,33,0.00,,,0.00,meteohub,2013-04-02 00:55:00,
2013-04-01 21:00:00,30.4,5.4,29.73,NW,314,3.0,17.0,34,0.00,,,0.00,meteohub,2013-04-02 01:00:00,
2013-04-01 21:05:00,30.2,5.9,29.73,NW,318,5.0,17.0,35,0.00,,,0.00,meteohub,2013-04-02 01:05:00,
2013-04-01 21:10:00,30.2,5.9,29.73,North,353,3.0,12.0,35,0.00,,,0.00,meteohub,2013-04-02 01:10:00,
2013-04-01 21:15:00,30.0,5.7,29.73,NNW,337,3.0,13.0,35,0.00,,,0.00,meteohub,2013-04-02 01:15:00,
2013-04-01 21:20:00,29.8,6.1,29.73,WSW,237,15.0,15.0,36,0.00,,,0.00,meteohub,2013-04-02 01:20:00,
2013-04-01 21:25:00,29.7,5.9,29.76,SE,146,5.0,15.0,36,0.00,,,0.00,meteohub,2013-04-02 01:25:00,
2013-04-01 21:30:00,29.7,5.9,29.76,WNW,293,0.0,15.0,36,0.00,,,0.00,meteohub,2013-04-02 01:30:00,
2013-04-01 21:35:00,29.5,5.7,29.76,WNW,295,5.0,15.0,36,0.00,,,0.00,meteohub,2013-04-02 01:35:00,
2013-04-01 21:40:00,29.5,6.4,29.76,NW,309,2.0,12.0,37,0.00,,,0.00,meteohub,2013-04-02 01:40:00,
2013-04-01 21:45:00,29.3,6.3,29.76,NW,305,5.0,12.0,37,0.00,,,0.00,meteohub,2013-04-02 01:45:00,
2013-04-01 21:50:00,29.3,5.7,29.76,NNW,339,6.0,13.0,36,0.00,,,0.00,meteohub,2013-04-02 01:50:00,
2013-04-01 21:55:00,29.1,5.5,29.76,NW,307,0.0,13.0,36,0.00,,,0.00,meteohub,2013-04-02 01:55:00,
2013-04-01 22:00:00,28.9,5.4,29.76,West,265,4.0,13.0,36,0.00,,,0.00,meteohub,2013-04-02 02:00:00,
2013-04-01 22:05:00,28.9,5.9,29.76,NW,321,5.0,13.0,37,0.00,,,0.00,meteohub,2013-04-02 02:05:00,
2013-04-01 22:10:00,28.9,5.4,29.76,SW,222,0.0,13.0,36,0.00,,,0.00,meteohub,2013-04-02 02:10:00,
2013-04-01 22:15:00,28.8,5.2,29.76,WNW,297,7.0,13.0,36,0.00,,,0.00,meteohub,2013-04-02 02:15:00,
2013-04-01 22:20:00,28.8,5.2,29.76,North,3,4.0,11.0,36,0.00,,,0.00,meteohub,2013-04-02 02:20:00,
2013-04-01 22:25:00,28.6,5.0,29.76,South,179,3.0,18.0,36,0.00,,,0.00,meteohub,2013-04-02 02:25:00,
2013-04-01 22:30:00,28.4,5.4,29.76,NW,314,4.0,18.0,37,0.00,,,0.00,meteohub,2013-04-02 02:30:00,
2013-04-01 22:35:00,28.4,6.1,29.76,North,353,6.0,18.0,38,0.00,,,0.00,meteohub,2013-04-02 02:35:00,
2013-04-01 22:42:00,28.2,5.9,29.76,NNW,337,6.0,8.0,38,0.00,,,0.00,meteohub,2013-04-02 02:42:00,
2013-04-01 22:47:00,28.0,5.2,29.76,WNW,291,4.0,11.0,37,0.00,,,0.00,meteohub,2013-04-02 02:47:00,
2013-04-01 22:52:00,27.9,5.0,29.76,SW,229,6.0,11.0,37,0.00,,,0.00,meteohub,2013-04-02 02:52:00,
2013-04-01 22:57:00,27.9,5.0,29.79,NW,325,7.0,11.0,37,0.00,,,0.00,meteohub,2013-04-02 02:57:00,
2013-04-01 23:02:00,27.9,5.0,29.79,WNW,299,6.0,10.0,37,0.00,,,0.00,meteohub,2013-04-02 03:02:00,
2013-04-01 23:07:00,27.7,4.8,29.79,West,271,3.0,9.0,37,0.00,,,0.00,meteohub,2013-04-02 03:07:00,
2013-04-01 23:12:00,27.5,4.6,29.79,NW,326,3.0,8.0,37,0.00,,,0.00,meteohub,2013-04-02 03:12:00,
2013-04-01 23:17:00,27.5,4.6,29.79,NW,320,8.0,10.0,37,0.00,,,0.00,meteohub,2013-04-02 03:17:00,
2013-04-01 23:22:00,27.5,4.1,29.79,NW,308,3.0,10.0,36,0.00,,,0.00,meteohub,2013-04-02 03:22:00,
2013-04-01 23:27:00,27.3,4.5,29.79,WNW,288,3.0,10.0,37,0.00,,,0.00,meteohub,2013-04-02 03:27:00,
2013-04-01 23:32:00,27.3,3.9,29.79,SW,220,0.0,10.0,36,0.00,,,0.00,meteohub,2013-04-02 03:32:00,
2013-04-01 23:37:00,27.1,3.7,29.79,SSE,167,4.0,11.0,36,0.00,,,0.00,meteohub,2013-04-02 03:37:00,
2013-04-01 23:42:00,27.1,3.7,29.79,North,353,4.0,15.0,36,0.00,,,0.00,meteohub,2013-04-02 03:42:00,
2013-04-01 23:47:00,27.0,4.1,29.79,North,357,4.0,15.0,37,0.00,,,0.00,meteohub,2013-04-02 03:47:00,
2013-04-01 23:52:00,27.0,4.1,29.79,NNW,331,3.0,15.0,37,0.00,,,0.00,meteohub,2013-04-02 03:52:00,
2013-04-01 23:57:00,27.0,4.1,29.79,SW,235,4.0,10.0,37,0.00,,,0.00,meteohub,2013-04-02 03:57:00,